Weather Roundup
Issued by NWS

Home | Current Version | Previous Version | Graphics & Text | Print | Product List | Glossary Off
Versions: 1 2 3 4 5 6 7 8 9 10 11 12 13 14 15 16 17 18 19 20 21 22 23 24 25 26 27 28 29 30 31 32 33 34 35 36 37 38 39 40 41 42 43 44 45 46 47 48 49 50

000
NZUS93 KARX 270110
HRRWXR

CURRENT HOURLY OBSERVATIONS ACROSS
MUCH OF THE UPPER MISSISSIPPI VALLEY
NATIONAL WEATHER SERVICE LA CROSSE WI
800 PM CDT WED JUL 26 2017


...SOUTHEAST MINNESOTA...


CITY           SKY/WX    TMP DP  RH WIND       PRES   REMARKS
ROCHESTER      PTCLDY    75  70  84 N6        30.00R
ROCHESTER/MAYO CLOUDY    78  69  74 CALM      29.99R
WINONA         PTCLDY    77  68  73 CALM      29.97R
AUSTIN         CLEAR     77  68  73 N3        29.99R
ALBERT LEA     PTCLDY    79  72  78 N3        30.00R
DODGE CENTER   CLEAR     75  66  73 N5        30.00R
PRESTON        MOCLDY    75  69  81 N3        30.00R
OWATONNA       CLEAR     75  66  73 NW6       30.00R
FARIBAULT      CLEAR     75  64  69 CALM      30.00R
$$

...ELSEWHERE IN MINNESOTA...


CITY           SKY/WX    TMP DP  RH WIND       PRES   REMARKS
MINNEAPOLIS    PTCLDY    80  60  50 N9        29.98R
INTNL FALLS    CLEAR     74  60  61 NW5       30.01R
DULUTH         PTCLDY    75  61  61 NW6       30.00R
RED WING       CLEAR     77  66  69 CALM      29.96S
REDWOOD FALLS  CLEAR     78  61  55 NW6       30.02S
MANKATO        CLEAR     77  65  66 N8        30.01R
WORTHINGTON    CLEAR     75  62  64 N6        30.06R
FAIRMONT       CLEAR     76  66  71 N7        30.02R
$$

...SOUTHWEST WISCONSIN...


CITY           SKY/WX    TMP DP  RH WIND       PRES   REMARKS
LA CROSSE      CLEAR     80  72  76 NW6       29.95R
PRAIRIE DU CHI CLOUDY    77  71  79 N7        29.96R
BOSCOBEL       CLOUDY    77  73  87 N6        29.96R
LONE ROCK      CLOUDY    76  73  91 CALM      29.96R
PLATTEVILLE    CLOUDY    77  76  97 CALM      29.98R
FORT MC COY    CLEAR     76  70  80 NW3       29.97R
CAMP DOUGLAS   MOCLDY    77  72  83 CALM      29.96S
MAUSTON-NEW LI CLOUDY    76  73  88 CALM      29.96R
VIROQUA        FAIR      75  71  89 CALM      29.99R
WIS DELLS      CLOUDY    75  70  85 CALM      29.97R
$$

...ELSEWHERE IN WISCONSIN...


CITY           SKY/WX    TMP DP  RH WIND       PRES   REMARKS
MILWAUKEE      CLOUDY    75  69  81 SE7       29.97F
MADISON        CLOUDY    73  71  93 SE6       29.96R
GREEN BAY      CLOUDY    77  74  90 CALM      29.94F
EAU CLAIRE     CLEAR     77  66  68 N3        29.96R
BLACK RVR FLS  MOCLDY    76  67  72 CALM      29.96S
MEDFORD        CLEAR     73  66  79 NW3       29.98S
WAUSAU         PTCLDY    73  69  87 W5        29.96R
WIS RAPIDS     MOCLDY    75  70  84 W3        29.98S
MARSHFIELD     PTCLDY    72  67  84 NW5       29.97S
RICE LAKE      CLEAR     76  62  62 CALM      30.00S
$$

...NORTHEAST IOWA...


CITY           SKY/WX    TMP DP  RH WIND       PRES   REMARKS
WATERLOO       CLOUDY    76  71  85 NW3       29.96S
DUBUQUE        CLOUDY    71  68  90 S8        29.98R
DECORAH        CLOUDY    75  72  88 CALM      29.97S
MASON CITY     CLOUDY    74  68  81 SW5       30.02R
CHARLES CITY   CLOUDY    75  70  83 W6        30.00R
OELWEIN        NOT AVBL
$$

...ELSEWHERE IN IOWA...


CITY           SKY/WX    TMP DP  RH WIND       PRES   REMARKS
DES MOINES     CLOUDY    76  73  91 W7        29.97R
IOWA CITY      CLOUDY    77  73  87 S5        29.96R
FORT DODGE     MOCLDY    73  70  88 SE3       30.01S
MARSHALLTOWN   CLOUDY    75  71  87 NW5       29.97S
CEDAR RAPIDS   NOT AVBL
$$

...NORTHERN ILLINOIS...


CITY           SKY/WX    TMP DP  RH WIND       PRES   REMARKS
CHICAGO-OHARE  CLOUDY    80  70  71 S9        29.97R
CHICAGO-MIDWAY CLOUDY    82  70  66 S6        29.98R
MOLINE         CLOUDY    74  69  85 CALM      29.96R
ROCKFORD       CLOUDY    80  74  81 E6        29.97S
PEORIA         TSTM      73  71  93 W28G40    30.00R FOG
$$

NOTE: "FAIR" INDICATES FEW OR NO CLOUDS BELOW 12,000 FEET WITH NO
SIGNIFICANT WEATHER AND/OR OBSTRUCTIONS TO VISIBILITY. WIND
SPEEDS ARE IN MILES-PER-HOUR.




USA.gov is the U.S. government's official web portal to all federal, state and local government web resources and services.